Location: Bougoura
(13.1861°N, 5.0773°W)
Time: 03:10:52
(UTC+00:00)

ATLAS 2AS CENTAUR R/B - Pass Details

Date: 18 September 2020
Orbit: 939 x 1273 km, 63.7° (Epoch: 19 October)

Event Time Altitude Azimuth Distance (km) Brightness Sun altitude
Rises 19:01:15 0° 174° (S) 4,027 5.6 -11.1°
Reaches altitude 10° 19:04:27 10° 162° (SSE) 3,116 4.9 -11.9°
Maximum altitude 19:10:27 26° 109° (ESE) 2,222 3.8 -13.3°
Drops below altitude 10° 19:16:39 10° 56° (ENE) 3,244 4.8 -14.8°
Enters shadow 19:16:56 - 55° (NE) 3,321 4.8 -14.9°
